Volver al catálogo

SL-8 R/B

ActivoLEO
NORAD 18121·ROCKET BODY·🇷🇺 Russia

Lanzado Jun 16, 1987 desde Plesetsk Cosmodrome

Loading…

Próximos Pases (próximas 24 horas)

TLE

ActualizadoSource: Space-Track

Época: Sep 14, 2026, 10:39 UTC

1 18121U 87051J   26257.44404926  .00000043  00000-0  52233-3 0  9994
2 18121  74.0065  65.2775 0132061   3.4327  23.1346 12.22608534751499

Sigue SL-8 R/B en tiempo real con AllMySat

Download on the App Store